Home > Weather > Kitzbühel > Past weeks

Flag for Austria Past Weather in Kitzbühel, Tyrol, Austria — Yesterday and Last 2 Weeks

Now
74 °F

Mild.


Feels Like: 76 °F
Forecast: 65 / 83 °F
Wind: 1 mph from North

Location: Kufstein

Current Time: Jun 25, 2016 at 12:20:31 AM

Latest Report: Jun 24, 2016 at 11:00 PM


Visibility: N/A

Pressure: 29.92 "Hg (27.44 "Hg at 750m altitude)

Humidity: 63%

Dew Point: 61 °F

Location of KitzbühelLocation

Past Weather in Kitzbühel — Graph

°F

Kitzbühel Temperature Yesterday

Maximum temperature yesterday: 89 °F (at 3:00 PM)
Minimum temperature yesterday: 62 °F (at 6:00 AM)
Average temperature yesterday: 75 °F

High & Low Weather Summary for the Past Weeks

 TemperatureHumidityPressure
High89 °F (Jun 24, 3:00 PM)97% (Jun 10, 12:00 AM)30.27 "Hg (Jun 10, 12:00 AM)
Low51 °F (Jun 18, 7:00 AM)36% (Jun 24, 6:00 PM)29.44 "Hg (Jun 16, 3:00 PM)
Average62 °F78%29.93 "Hg
* Reported Jun 9 11:00 PM — Jun 24 11:00 PM, Kitzbühel, Weather by CustomWeather, © 2016

Note: Actual official high and low records may vary slightly from our data, if they occured in-between our weather recording intervals... More about our weather records

Advertising

Kitzbühel Weather History for the Previous 24 Hours

Scroll right to see more
 ConditionsComfort  
Time TempWeatherWind HumidityBarometerVisibility
11:00 PM
Fri, Jun 24
74 °FMild.1 mph63%29.92 "HgN/A
10:00 PM77 °FWarm.2 mph57%29.92 "HgN/A
9:00 PM81 °FWarm.2 mph52%29.90 "HgN/A
8:00 PM85 °FWarm.2 mph45%29.88 "HgN/A
7:00 PM87 °FWarm.3 mph41%29.87 "HgN/A
6:00 PM89 °FHot.3 mph36%29.87 "HgN/A
3:00 PM89 °FHot.3 mph37%29.92 "HgN/A
2:00 PM88 °FWarm.5 mph41%29.93 "HgN/A
1:00 PM86 °FWarm.2 mph44%29.95 "HgN/A
12:00 PM84 °FWarm.2 mph48%29.98 "HgN/A
11:00 AM79 °FWarm.2 mph52%30.01 "HgN/A
10:00 AM77 °FWarm.1 mph57%30.03 "HgN/A
9:00 AM72 °FMild.No wind66%30.06 "HgN/A
8:00 AM67 °FMild.1 mph77%30.08 "HgN/A
7:00 AM64 °FMild.1 mph83%30.09 "HgN/A
6:00 AM62 °FMild.1 mph85%30.09 "HgN/A
5:00 AM64 °FMild.1 mph83%30.08 "HgN/A
4:00 AM64 °FMild.3 mph82%30.08 "HgN/A
3:00 AM65 °FMild.2 mph85%30.08 "HgN/A
2:00 AM65 °FMild.No wind88%30.09 "HgN/A
1:00 AM66 °FMild.No wind84%30.09 "HgN/A
12:00 AM68 °FMild.No wind79%30.09 "HgN/A
Weather by CustomWeather, © 2016

See weather overviewHow to use our weather pages